User: anonymous   Login
Location: Churchill
(58.7670°N, 94.1670°W)
Time: 18:53:22
(UTC-05:00)
Language:

Cosmos 2142 Rocket - Orbit

View from above orbital plane
View from above orbital plane
View from above satellite
View from above satellite

Ground track
Ground track

The orbit data is extracted from the following two-line orbital elements,

1 21231U 91029B   14294.83558432  .00000093  00000-0  80507-4 0  5798
2 21231 082.9493 106.6599 0036018 059.1706 059.8574 13.75636882180509
Epoch (UTC): 21 October 2014 20:03:14
Eccentricity: 0.0036018
inclination: 82.9493°
perigee height: 953 km
apogee height: 1006 km
right ascension of ascending node: 106.6599°
argument of perigee: 59.1706°
revolutions per day: 13.75636882
mean anomaly at epoch: 59.8574°
orbit number at epoch: 18050

The dashed part of the orbit path shows where the satellite is in the earth's shadow,  

DLR